Weather History for Bellefontaine, OH

Change the Weather History Date:

Monday, December 10, 2012

  Actual Average (KDAY) Record (KDAY)
Temperature  
Mean Temperature 42 °F 33 °F  
Max Temperature 53 °F 40 °F 67 °F (1971)
Min Temperature 32 °F 26 °F -9 °F (1958)
Degree Days  
Heating Degree Days 22 32  
Month to date heating degree days 307  
Since 1 July heating degree days 1418  
Cooling Degree Days 0 0  
Month to date cooling degree days 0  
Year to date cooling degree days 891  
Moisture  
Dew Point 35 °F    
Average Humidity 99    
Maximum Humidity 100    
Minimum Humidity 93    
Precipitation  
Precipitation 0.00 in 0.10 in 0.69 in (1999)
Month to date precipitation 1.04  
Year to date precipitation 38.97  
Snow  
Snow 0.00 in 0.10 in 4.00 in (1904)
Month to date snowfall 1.0  
Since 1 July snowfall 2.0  
Snow Depth -    
Sea Level Pressure  
Sea Level Pressure 29.70 in    
Wind  
Wind Speed 9 mph (West)    
Max Wind Speed 15 mph    
Max Gust Speed 26 mph    
Visibility 7 miles    
Events      
T = Trace of Precipitation, MM = Missing Value Source: NWS Daily Summary

Daily Weather History Graph

Daily Weather History Graph

Search for Another Location

Airport:

Trip Planner

Search our weather history database for the weather conditions in past years. The results will help you decide how hot, cold, wet, or windy it might be!

Date:

Astronomy

Dec. 10, 2012 Rise Set
Actual Time 7:47 AM EST 5:08 PM EST
Civil Twilight 7:17 AM EST 5:39 PM EST
Nautical Twilight 6:42 AM EST 6:13 PM EST
Astronomical Twilight 6:09 AM EST 6:46 PM EST
Moon 4:29 AM EST (12/10) 2:57 PM EST (12/10)
Length of Visible Light 10h 22m
Length of Day
9h 21m
Waning Crescent, 10% of the Moon is Illuminated
Dec 10
Waning Crescent
Dec 13
New
Dec 20
First Quarter
Dec 28
Full
Jan 4
Last Quarter

Hourly Weather History & Observations

Time (EST) Temp. Windchill Dew Point Humidity Pressure Visibility Wind Dir Wind Speed Gust Speed Precip Events Conditions
12:05 AM 53.6 °F - - N/A% 29.64 in 7.0 mi South 13.8 mph - 0.00 in   Overcast
12:25 AM 53.6 °F - - N/A% 29.64 in 5.0 mi SSW 12.7 mph - 0.01 in   Overcast
12:45 AM 53.6 °F - - N/A% 29.63 in 3.0 mi SW 11.5 mph - 0.02 in   Overcast
1:05 AM 51.8 °F - - N/A% 29.63 in 5.0 mi WNW 9.2 mph - 0.00 in   Overcast
1:25 AM 50.0 °F - - N/A% 29.63 in 4.0 mi West 9.2 mph - 0.00 in   Overcast
1:45 AM 50.0 °F - - N/A% 29.63 in 8.0 mi WNW 6.9 mph - 0.00 in   Overcast
2:05 AM 48.2 °F - - N/A% 29.65 in 7.0 mi West 8.1 mph - 0.00 in   Overcast
2:25 AM 48.2 °F - - N/A% 29.65 in 4.0 mi West 6.9 mph - 0.00 in   Overcast
2:45 AM 48.2 °F - - N/A% 29.65 in 3.0 mi West 6.9 mph - 0.00 in   Overcast
3:05 AM 48.2 °F - - N/A% 29.65 in 5.0 mi West 8.1 mph - 0.00 in   Overcast
3:45 AM 46.4 °F 42.4 °F - N/A% 29.64 in 5.0 mi West 8.1 mph - 0.00 in   Overcast
4:05 AM 46.4 °F 41.9 °F - N/A% 29.65 in 4.0 mi West 9.2 mph - 0.00 in   Overcast
4:25 AM 44.6 °F 40.2 °F - N/A% 29.65 in 3.0 mi West 8.1 mph - 0.00 in   Overcast
4:45 AM 44.6 °F 38.8 °F - N/A% 29.65 in 8.0 mi West 11.5 mph - 0.00 in   Overcast
5:05 AM 42.8 °F 36.6 °F 42.8 °F 100% 29.65 in 7.0 mi West 11.5 mph - 0.00 in   Overcast
5:25 AM 42.8 °F 37.0 °F 42.8 °F 100% 29.65 in 6.0 mi West 10.4 mph - 0.00 in   Overcast
5:45 AM 42.8 °F 37.0 °F 42.8 °F 100% 29.65 in 5.0 mi West 10.4 mph - 0.00 in   Overcast
6:05 AM 41.0 °F 33.9 °F 41.0 °F 100% 29.64 in 3.0 mi West 12.7 mph - 0.00 in   Overcast
6:25 AM 39.2 °F 33.0 °F 39.2 °F 100% 29.66 in 5.0 mi West 9.2 mph - 0.00 in   Overcast
6:45 AM 39.2 °F 33.0 °F 39.2 °F 100% 29.66 in 5.0 mi West 9.2 mph 16.1 mph 0.00 in   Overcast
7:05 AM 39.2 °F 32.0 °F 39.2 °F 100% 29.66 in 8.0 mi West 11.5 mph - 0.00 in   Overcast
7:25 AM 37.4 °F 28.9 °F 37.4 °F 100% 29.66 in 7.0 mi West 13.8 mph - 0.00 in   Overcast
7:45 AM 37.4 °F 29.8 °F 37.4 °F 100% 29.67 in 10.0 mi West 11.5 mph - 0.00 in   Overcast
8:05 AM 37.4 °F 30.3 °F 37.4 °F 100% 29.68 in 10.0 mi West 10.4 mph - 0.00 in   Overcast
8:25 AM 37.4 °F 30.8 °F 37.4 °F 100% 29.69 in 9.0 mi West 9.2 mph - 0.00 in   Overcast
8:45 AM 37.4 °F 31.4 °F 37.4 °F 100% 29.69 in 9.0 mi West 8.1 mph - 0.00 in   Overcast
9:05 AM 37.4 °F 31.4 °F 37.4 °F 100% 29.68 in 9.0 mi WNW 8.1 mph - 0.00 in   Overcast
9:25 AM 37.4 °F 31.4 °F 37.4 °F 100% 29.69 in 9.0 mi West 8.1 mph - 0.00 in   Overcast
9:45 AM 37.4 °F 30.8 °F 37.4 °F 100% 29.69 in 9.0 mi WNW 9.2 mph - 0.00 in   Overcast
10:05 AM 37.4 °F 30.8 °F 35.6 °F 93% 29.68 in 10.0 mi WNW 9.2 mph - 0.00 in   Overcast
10:25 AM 37.4 °F 29.8 °F 35.6 °F 93% 29.67 in 10.0 mi WNW 11.5 mph - 0.00 in   Overcast
10:45 AM 37.4 °F 30.8 °F 35.6 °F 93% 29.67 in 10.0 mi WNW 9.2 mph 17.3 mph 0.00 in   Overcast
11:05 AM 37.4 °F 30.3 °F 35.6 °F 93% 29.68 in 10.0 mi WNW 10.4 mph - 0.00 in   Overcast
11:25 AM 37.4 °F 30.3 °F 35.6 °F 93% 29.68 in 10.0 mi WNW 10.4 mph - 0.00 in   Overcast
11:45 AM 37.4 °F 30.8 °F 35.6 °F 93% 29.68 in 10.0 mi WNW 9.2 mph 17.3 mph 0.00 in   Overcast
12:05 PM 35.6 °F 26.2 °F 35.6 °F 100% 29.68 in 10.0 mi WNW 15.0 mph 26.5 mph 0.00 in   Overcast
12:25 PM 35.6 °F 27.5 °F 35.6 °F 100% 29.69 in 9.0 mi West 11.5 mph 18.4 mph 0.00 in   Overcast
12:45 PM 35.6 °F 27.1 °F 35.6 °F 100% 29.68 in 10.0 mi West 12.7 mph - 0.00 in   Overcast
1:05 PM 33.8 °F 25.3 °F 33.8 °F 100% 29.68 in 10.0 mi West 11.5 mph 17.3 mph 0.00 in   Overcast
1:25 PM 33.8 °F 24.3 °F 32.0 °F 93% 29.68 in 10.0 mi WNW 13.8 mph 17.3 mph 0.00 in   Overcast
1:45 PM 33.8 °F 25.3 °F 32.0 °F 93% 29.68 in 10.0 mi West 11.5 mph 16.1 mph 0.00 in   Overcast
2:05 PM 33.8 °F 26.4 °F 32.0 °F 93% 29.67 in 9.0 mi West 9.2 mph - 0.00 in   Overcast
2:25 PM 32.0 °F 23.0 °F 32.0 °F 100% 29.68 in 8.0 mi West 11.5 mph - 0.00 in   Overcast
2:45 PM 32.0 °F 23.6 °F 32.0 °F 100% 29.69 in 8.0 mi West 10.4 mph - 0.00 in   Overcast
3:05 PM 32.0 °F 23.6 °F 32.0 °F 100% 29.69 in 7.0 mi West 10.4 mph - 0.00 in   Overcast
3:25 PM 32.0 °F 24.2 °F 32.0 °F 100% 29.72 in 7.0 mi West 9.2 mph - 0.00 in   Overcast
3:45 PM 32.0 °F 24.8 °F 32.0 °F 100% 29.70 in 7.0 mi West 8.1 mph - 0.00 in   Overcast
4:05 PM 32.0 °F 24.2 °F 32.0 °F 100% 29.72 in 6.0 mi West 9.2 mph - 0.00 in   Overcast
4:25 PM 32.0 °F 24.8 °F 32.0 °F 100% 29.73 in 5.0 mi West 8.1 mph - 0.00 in   Overcast
4:45 PM 32.0 °F 25.6 °F 32.0 °F 100% 29.72 in 6.0 mi West 6.9 mph - 0.00 in   Overcast
5:05 PM 32.0 °F - 32.0 °F 100% 29.71 in 5.0 mi Calm Calm - 0.00 in   Overcast
5:25 PM 32.0 °F - 32.0 °F 100% 29.73 in 8.0 mi Calm Calm - 0.00 in   Overcast
5:45 PM 32.0 °F - 32.0 °F 100% 29.73 in 9.0 mi Calm Calm - 0.00 in   Overcast
6:05 PM 32.0 °F - 32.0 °F 100% 29.74 in 10.0 mi Calm Calm - 0.00 in   Overcast
6:25 PM 32.0 °F - 32.0 °F 100% 29.75 in 9.0 mi Calm Calm - 0.00 in   Overcast
6:45 PM 32.0 °F - 32.0 °F 100% 29.76 in 9.0 mi Calm Calm - 0.00 in   Overcast
7:05 PM 32.0 °F - 32.0 °F 100% 29.78 in 9.0 mi Calm Calm - 0.00 in   Overcast
7:25 PM 32.0 °F - 32.0 °F 100% 29.78 in 5.0 mi Calm Calm - 0.00 in   Overcast
7:45 PM 32.0 °F - 32.0 °F 100% 29.79 in 2.5 mi Calm Calm - 0.00 in   Overcast
8:05 PM 32.0 °F - 32.0 °F 100% 29.79 in 3.0 mi Calm Calm - 0.00 in   Overcast
8:25 PM 32.0 °F - 32.0 °F 100% 29.80 in 3.0 mi Calm Calm - 0.00 in   Overcast
8:45 PM 32.0 °F - 32.0 °F 100% 29.81 in 5.0 mi Calm Calm - 0.00 in   Overcast
9:05 PM 32.0 °F - 32.0 °F 100% 29.81 in 5.0 mi Calm Calm - 0.00 in   Overcast
9:45 PM 32.0 °F - 32.0 °F 100% 29.82 in 4.0 mi Calm Calm - 0.00 in   Overcast
10:05 PM 32.0 °F - 32.0 °F 100% 29.83 in 4.0 mi Calm Calm - 0.00 in   Overcast
10:25 PM 32.0 °F - 32.0 °F 100% 29.84 in 3.0 mi Calm Calm - 0.00 in   Overcast
10:45 PM 32.0 °F - 32.0 °F 100% 29.84 in 3.0 mi Calm Calm - 0.00 in   Overcast
11:05 PM 32.0 °F - 32.0 °F 100% 29.85 in 3.0 mi Calm Calm - 0.00 in   Overcast
11:25 PM 32.0 °F - 32.0 °F 100% 29.85 in 2.5 mi Calm Calm - 0.00 in   Overcast
11:45 PM 32.0 °F - 32.0 °F 100% 29.86 in 2.5 mi Calm Calm - 0.00 in   Overcast